Regional Weather Roundup
Issued by NWS

Home | Current Version | Previous Version | Text Only | Print | Product List | Glossary On
Versions: 1 2 3 4 5 6 7 8 9 10 11 12 13 14 15 16 17 18 19 20 21 22 23 24 25 26 27 28 29 30 31 32 33 34 35 36 37 38 39 40 41 42 43 44 45 46 47 48 49 50
000
ASUS44 KJAN 291710
RWRMS

MISSISSIPPI HOURLY WEATHER ROUNDUP
NATIONAL WEATHER SERVICE JACKSON MS
1200 PM CDT SUN MAY 29 2016

NOTE: "FAIR: INDICATES FEW OR NO CLOUDS BELOW 12,000 FEET WITH NO
SIGNIFICANT WEATHER AND/OR OBSTRUCTIONS TO VISIBILITY.

MSZ001>002-007>008-010>013-018>021-025>028-034>036-291800-
NORTHWEST MISSISSIPPI

CITY           SKY/WX    TMP DP  RH WIND       PRES   REMARKS
BATESVILLE     FAIR      83  69  62 W6        30.13F
CLARKSDALE     MOSUNNY   84  72  65 CALM      30.13S
CLEVELAND      FAIR      83  75  76 SW5       30.13S HX  90
GREENWOOD      MOSUNNY   86  66  51 VRB6      30.13F
GREENVILLE     MOSUNNY   85  70  60 CALM      30.13F
OLIVE BRANCH   PTSUNNY   82  72  69 CALM      30.12F
OXFORD         FAIR      84  64  51 W3        30.15S
TUNICA         MOSUNNY   81  70  69 SW3       30.13S
WINONA         FAIR      84  67  57 NW8       30.14S
$$

MSZ003>006-009-014>017-022>024-029>033-037>039-291800-
NORTHEAST MISSISSIPPI

CITY           SKY/WX    TMP DP  RH WIND       PRES   REMARKS
COLUMBUS AFB   MOSUNNY   86  69  57 VRB5      30.12S HX  90
CORINTH        FAIR      84  66  54 VRB3      30.12F
GOLDN TRIANGLE PTSUNNY   86  66  51 N9        30.13S
STARKVILLE     PTSUNNY   82  66  57 N5        30.12F
TUPELO         SUNNY     84  66  54 W5        30.12F
$$

MSZ040-058-291800-
CENTRAL MISSISSIPPI

CITY           SKY/WX    TMP DP  RH WIND       PRES   REMARKS
JACKSON INTL   PTSUNNY   85  67  54 NE8       30.14F
JACKSON HAWKNS MOSUNNY   85  66  53 NW6       30.15S
MADISON        FAIR      82  68  61 CALM      30.14S
MERIDIAN KEY   MOSUNNY   89  66  46 CALM      30.13F HX  91
MERIDIAN NAS   PTSUNNY   87  62  43 W8        30.13S
VICKSBURG TVR  MOSUNNY   88  67  49 N7        30.14F HX  91
VICKSBURG VKS  MOSUNNY   86  68  54 N8        30.14F
$$

MSZ059>079-291800-
SOUTH MISSISSIPPI

CITY           SKY/WX    TMP DP  RH WIND       PRES   REMARKS
BROOKHAVEN     FAIR     N/A N/A N/A N7        30.16S
COLUMBIA       FAIR      84  64  51 NW5       30.17F
HATTIESBURG    SUNNY     86  65  49 CALM      30.14S
MCCOMB         MOSUNNY   85  64  49 N7        30.15S
NATCHEZ        SUNNY     84  70  61 N7        30.15S
PINE BELT      MOSUNNY   88  66  48 NE8       30.15F HX  90
$$

MSZ080>082-291800-
COASTAL MISSISSIPPI

CITY           SKY/WX    TMP DP  RH WIND       PRES   REMARKS
BAY ST LOUIS   MOSUNNY   84  59  42 VRB5      30.12F
BILOXI         MOSUNNY   85  69  59 SW7       30.11F
PASCAGOULA     MOSUNNY   87  66  49 VRB3      30.11F
GULFPORT       MOSUNNY   84  67  56 VRB5      30.11S
$$




USA.gov is the U.S. government's official web portal to all federal, state and local government web resources and services.